Regional Weather Roundup
Issued by NWS San Angelo, TX

Home | Current Version | Previous Version | Graphics & Text | Print | Product List | Glossary Off
Versions: 1 2 3 4 5 6 7 8 9 10 11 12 13 14 15 16 17 18 19 20 21 22 23 24 25 26 27 28 29 30 31 32 33 34 35 36 37 38 39 40 41 42 43 44 45 46 47 48 49 50

000
ASUS44 KSJT 230610
RWRSJT
WEST CENTRAL TEXAS REGIONAL WEATHER ROUNDUP
NATIONAL WEATHER SERVICE SAN ANGELO TX
100 AM CDT WED AUG 23 2017

NOTE: "FAIR" INDICATES FEW OR NO CLOUDS BELOW 12,000 FEET WITH NO
SIGNIFICANT WEATHER AND/OR OBSTRUCTIONS TO VISIBILITY.

TXZ049-054-064>066-071>073-076>078-098-099-113-114-127-128-139-140-
154-155-168>170-230700
...LOCATIONS ACROSS WEST CENTRAL TEXAS...

CITY           SKY/WX    TMP DP  RH WIND       PRES   REMARKS
SAN ANGELO     LGT RAIN  73  67  81 N14       30.12R
ABILENE        CLOUDY    72  68  87 NW10      30.10F
DYESS AFB      CLOUDY    72  69  89 CALM      30.08F
JUNCTION       CLEAR     81  63  54 CALM      30.07R
SWEETWATER     CLOUDY    70  65  85 W6        30.12F
BROWNWOOD      MOCLDY    77  66  69 W8G16     30.05R
COLEMAN        CLOUDY    77  67  71 NW9       30.09S
SONORA         CLEAR     79  63  57 CALM      30.13R
OZONA          CLOUDY    79  63  57 CALM      30.12S
BRADY          NOT AVBL
$$

TEXAS PANHANDLE/OKLAHOMA PANHANDLE

CITY           SKY/WX    TMP DP  RH WIND       PRES   REMARKS
AMARILLO       CLOUDY    66  63  90 CALM      30.21S
BORGER         MOCLDY    70  66  87 CALM      30.18F
CANADIAN       CLEAR     67  65  95 NE5       30.16R
DALHART        CLEAR     64  61  90 NW7       30.25F
DUMAS          CLEAR     63  61  95 N5        30.22S
GUYMON         NOT AVBL
HEREFORD       PTCLDY    67  67  97 NE5       30.23S FOG
PAMPA          PTCLDY    70  66  88 SE5       30.19F
PERRYTON       CLEAR     71  67  89 E8        30.18S
$$

SOUTHERN PANHANDLE/SOUTH PLAINS/ROLLING PLAINS

CITY           SKY/WX    TMP DP  RH WIND       PRES   REMARKS
LUBBOCK        PTCLDY    67  64  90 NW6       30.18S
SNYDER         LGT RAIN  69  66  90 S9        30.08F
CHILDRESS      CLOUDY    70  68  93 CALM      30.11F
SEMINOLE       CLOUDY    66  64  91 SE6       30.21S
$$

PERMIAN BASIN

CITY           SKY/WX    TMP DP  RH WIND       PRES   REMARKS
MIDLAND        CLOUDY    72  66  81 E8        30.16S
ODESSA         CLOUDY    70  67  90 E12       30.16F
WINK           CLOUDY    73  66  78 E13       30.11S
$$

FAR WEST/SOUTHWEST MOUNTAINS/TRANS PECOS

CITY           SKY/WX    TMP DP  RH WIND       PRES   REMARKS
ALPINE         PTCLDY    67  62  85 SW3       30.27S
DRYDEN           N/A     79  62  56 NE6       30.05R
EL PASO        MOCLDY    80  62  54 E5        30.14S
FORT STOCKTON  CLOUDY    80  62  54 SE5       30.11S
GUADALUPE PASS CLOUDY    72  61  68 NE15      30.29F
MARFA          CLOUDY    66  61  84 N5        30.26S
PECOS          MOCLDY    79  65  60 NE15G21   30.09F
$$

DALLAS/FORT WORTH METROPLEX

CITY           SKY/WX    TMP DP  RH WIND       PRES   REMARKS
DFW AIRPORT    MOCLDY    85  70  60 S3        29.97F
FTW MEACHAM    PTCLDY    87  70  56 E7        29.99S
DAL-EXECUTIVE  MOCLDY    84  70  62 S5        29.98F
GRAND PRAIRIE  MOCLDY    85  68  55 SE6       30.00S
ADDISON        MOCLDY    85  70  61 SE6       30.01S
MESQUITE         N/A     79  73  81 CALM      29.99S
LANCASTER      CLOUDY    80  70  72 CALM      29.99F
$$

NORTH CENTRAL TEXAS

CITY           SKY/WX    TMP DP  RH WIND       PRES   REMARKS
SHRMAN/DENISON LGT RAIN  77  72  83 N15G24    30.06R
GAINESVILLE    CLOUDY    74  71  88 NW14      30.09R
BRIDGEPORT     DRIZZLE   74  74 100 N16       30.07R
DENTON         CLOUDY    82  73  74 NW16      30.01R
WAXAHACHIE     PTCLDY    81  71  71 SE3       30.00F
GRANBURY       CLOUDY    85  69  58 CALM      30.01S
$$

WESTERN NORTH TEXAS

CITY           SKY/WX    TMP DP  RH WIND       PRES   REMARKS
WICHITA FALLS  CLOUDY    72  70  93 NE8       30.07S
VERNON         CLOUDY    73  68  86 NE5       30.08F
BRECKENRIDGE   CLOUDY    78  69  73 CALM      30.05F
COMANCHE       PTCLDY    79  65  62 S7        30.04S
$$

CENTRAL AND SOUTH CENTRAL TEXAS

CITY           SKY/WX    TMP DP  RH WIND       PRES   REMARKS
AUSTIN/BERGSTM CLEAR     81  70  69 S5        30.01S
WACO           CLEAR     84  67  56 S12       29.99S
HILLSBORO      CLOUDY    83  71  66 E9        29.99F
TEMPLE         CLEAR     82  68  62 S10       30.01R
KILLEEN-GRAY   CLEAR     80  65  61 S8        30.01S
FORT HOOD      CLEAR     81  66  61 S7        29.98S
GEORGETOWN     CLEAR     85  70  60 S9        30.03R
LAGO VISTA     FAIR      82  68  62 S8        30.05R
SAN MARCOS     CLEAR     79  70  74 SW5       30.03R
NEW BRAUNFELS  CLEAR     77  69  76 SW6       30.00F
RANDOLPH AFB   CLEAR     76  71  84 S3        30.02S
SAN ANTONIO    CLEAR     80  68  66 SE6       30.03S
STINSON        CLEAR     80  70  71 CALM      30.00S
PLEASANTON     NOT AVBL
LA GRANGE      CLEAR     81  74  81 CALM      29.99S
GIDDINGS       CLEAR     80  70  73 S6        30.02S
$$

EAST TEXAS

CITY           SKY/WX    TMP DP  RH WIND       PRES   REMARKS
PARIS          CLOUDY    77  72  84 NE8       30.02R
CLARKSVILLE    NOT AVBL
TYLER          CLEAR     77  75  93 SE6       30.00S
LONGVIEW       CLEAR     77  75  93 S5        29.99F
PALESTINE      CLEAR     80  70  71 CALM      30.02S
NACOGDOCHES    CLEAR     75  73  93 CALM      30.02R
$$

TEXAS HILL COUNTRY AND EDWARDS PLATEAU

CITY           SKY/WX    TMP DP  RH WIND       PRES   REMARKS
LLANO          CLEAR     73  66  78 CALM      30.06S
HORSESHOE BAY  FAIR      80  68  65 S5        30.03S
KERRVILLE      CLEAR     77  69  78 S3        30.07S
FREDERICKSBRG  CLEAR     74  63  69 CALM      30.07F
ROCKSPRINGS    NOT AVBL
HONDO          CLEAR     81  68  64 SE6       30.03S
UVALDE         CLEAR     80  67  64 CALM      30.03S
DEL RIO        CLEAR     86  64  47 E12       29.98S
$$

SOUTHEAST TEXAS

CITY           SKY/WX    TMP DP  RH WIND       PRES   REMARKS
COLLEGE STN    CLEAR     82  70  66 SE6       30.00R
CALDWELL       NOT AVBL
CROCKETT       CLEAR     75  72  88 CALM      30.04S
BRENHAM        CLEAR     80  71  73 SE3       30.01S
HUNTSVILLE     CLEAR     81  72  74 S3        30.01R
CONROE         CLEAR     76  74  93 CALM      30.01R
HOUSTON BUSH   PTCLDY    81  74  79 SW3       29.99S
HOUSTON HOBBY  PTCLDY    82  74  76 CALM      30.00R
PERLAND        CLEAR     81  74  79 CALM      30.01R
WHARTON        CLEAR     74  70  88 SE3       30.01S
$$

THE UPPER TEXAS COAST

CITY           SKY/WX    TMP DP  RH WIND       PRES   REMARKS
ORANGE         PTCLDY    77  77  99 CALM      30.02S
PORT ARTHUR    CLEAR     77  75  93 CALM      30.00R
GALVESTON      CLEAR     83  77  82 S5        30.00R
ANGLETON       CLEAR     76  74  93 CALM      30.00R
BAY CITY       CLEAR     76  74  92 CALM      30.00S
$$

TEXAS COASTAL BEND, RIO GRANDE PLAINS DEEP SOUTH TEXAS

CITY           SKY/WX    TMP DP  RH WIND       PRES   REMARKS
VICTORIA       CLEAR     77  73  87 S3        30.00S
BEEVILLE       FAIR     N/A N/A N/A CALM      30.00F
ROCKPORT       PTCLDY    83  75  77 SE8       29.98F
PORT ARANSAS   CLEAR     82  76  80 SE6       29.98S
PORT LAVACA    CLEAR     76  72  86 S3        30.00S
CORPUS CHRISTI PTCLDY    78  76  93 SE6       29.98S
KINGSVILLE NAS CLEAR     78  77  96 CALM      29.99R
COTULLA        CLEAR     82  66  58 SE8       30.00S
LAREDO         CLEAR     83  70  64 SE13      30.00S
BROWNSVILLE    CLEAR     79  77  94 CALM      29.97F
PORT ISABEL    CLEAR     82  77  84 SE6       29.97S
HEBBRONVILLE   CLEAR     76  69  78 CALM      30.03R
MCALLEN        CLEAR     82  74  76 SE3       29.99S
WESLACO        CLEAR     80  74  81 CALM      29.98S
FALFURRIAS     CLEAR     78  73  83 CALM      29.99S
EDINBURG       CLEAR     81  73  77 CALM      29.99S
$$




USA.gov is the U.S. government's official web portal to all federal, state and local government web resources and services.